Miscellaneous Local Product
Issued by NWS Hastings, NE

Home | Current Version | Previous Version | Text Only | Print | Product List | Glossary On
Versions: 1 2 3 4 5 6 7 8 9 10 11 12 13 14 15 16 17 18 19 20 21 22 23 24 25 26 27 28 29 30 31 32 33 34 35 36 37 38 39 40 41 42 43 44 45 46 47 48 49 50
000
AXUS43 KGID 310602
MISGRI

GID CWA HOURLY WEATHER ROUNDUP
NATIONAL WEATHER SERVICE HASTINGS NE
100 AM CDT SUN JUL 31 2016

NOTE: "FAIR" INDICATES FEW OR NO CLOUDS BELOW 12,000 FEET WITH NO
SIGNIFICANT WEATHER AND/OR OBSTRUCTIONS TO VISIBILITY.

...SOUTH CENTRAL NEBRASKA...

CITY           SKY/WX    TMP DP  RH WIND       PRES   REMARKS
GRAND ISLAND   CLOUDY    70  67  90 SE9       29.94F
HASTINGS       CLEAR     70  67  90 SE10      29.93F
KEARNEY        CLEAR     70  66  88 SE9       29.94S
ORD            CLOUDY    70  65  84 SE5       29.93R
YORK           CLOUDY    68  66  94 SE8       29.95S
AURORA         PTCLDY    68  68  98 SE7       29.95S
LEXINGTON      CLEAR     71  68  90 SE9       29.92F
HOLDREGE       CLEAR     70  67  91 SE10      29.93S
HEBRON         CLEAR     71  67  87 SE9       29.93F

...NEBRASKA PANHANDLE...

CITY           SKY/WX    TMP DP  RH WIND       PRES   REMARKS
CHADRON        MOCLDY    64  59  83 E5        29.89R
ALLIANCE       CLEAR     67  63  87 SE10      29.90F
SCOTTSBLUFF    CLOUDY    69  62  78 E10       29.88F
SIDNEY         CLOUDY    71  62  73 S12       29.96F

...WESTERN AND NORTH CENTRAL NEBRASKA...

CITY           SKY/WX    TMP DP  RH WIND       PRES   REMARKS
VALENTINE      MOCLDY    74  67  78 SW9       29.91R
AINSWORTH      MOCLDY    72  71  96 SE14      29.90F
ONEILL         PTCLDY    71  68  91 SE12      29.92F
BROKEN BOW     CLEAR     70  68  93 SE9       29.94S
IMPERIAL       CLEAR     73  65  75 SE12      29.90F
NORTH PLATTE   CLEAR     72  67  84 SE9       29.91F
MCCOOK         PTCLDY    74  67  78 E10       29.89F

...EASTERN NEBRASKA...

CITY           SKY/WX    TMP DP  RH WIND       PRES   REMARKS
NORFOLK        CLEAR     68  64  87 E6        29.95S
SO SIOUX CITY  CLOUDY    69  63  81 SE8       29.95S
TEKAMAH        PTCLDY    67  64  90 SE3       29.96S
COLUMBUS       CLEAR     66  59  77 E5        29.96S
ALBION         PTCLDY    69  65  89 SE7       29.95F
OMAHA EPPLEY   PTCLDY    72  64  76 SE7       29.96F
OFFUTT AFB     PTCLDY    70  66  89 E6        29.96F
MILLARD        MOCLDY    71  66  85 SE6       29.96S
LINCOLN        MOCLDY    74  68  81 SE10      29.95F
NEBRASKA CITY  CLEAR     69  68  98 SE7       29.97F
BEATRICE       CLEAR     71  67  87 SE6       29.95F
FALLS CITY     PTCLDY    69  67  93 SE5       29.97S

...NORTHERN KANSAS...

CITY           SKY/WX    TMP DP  RH WIND       PRES   REMARKS
GOODLAND       CLEAR     73  65  75 SE13      29.90F
HILL CITY      CLOUDY    76  69  79 SE10      29.88F
NORTON         MOCLDY    73  63  68 E17G25    29.93R
SMITH CENTER   PTCLDY    72  68  88 E10       29.92S
BELOIT         CLEAR     73  70  88 SE9       29.89F
HAYS           PTCLDY    77  64  65 SE15      29.88F
RUSSELL        PTCLDY    76  69  79 SE18      29.87F
CONCORDIA      CLEAR     71  69  93 E8        29.92F
SALINA         CLOUDY    79  69  71 SE13      29.91F
TOPEKA         CLEAR     73  69  87 E5        29.97S



USA.gov is the U.S. government's official web portal to all federal, state and local government web resources and services.